Location: Anuling
(14.1239°N, 120.8922°E)
Time: 05:08:57
(UTC+00:00)

Helios 1A Rocket - Pass Details

Date: 14 January 2026
Orbit: 426 x 436 km, 98.3° (Epoch: 11 February)

Event Time Altitude Azimuth Distance (km) Brightness Sun altitude
Rises 10:06:29 0° 24° (NNE) 2,402 5.7 -5.3°
Reaches altitude 10° 10:08:37 10° 34° (NE) 1,530 4.6 -5.8°
Maximum altitude 10:11:36 33° 101° (E) 742 3.1 -6.5°
Drops below altitude 10° 10:14:34 10° 167° (SSE) 1,519 5.2 -7.1°
Sets 10:16:41 0° 177° (S) 2,381 6.3 -7.6°
